CSN3938 ZSQD-ZGHA

Flight info

Callsign CSN3938
Flight time N/A
Altitude 26600
Route DYN W4 EKORO W37 GUSIV
Aircraft A320/M-SDE2E3FGHIRWXY/LB2

Departure

Time N/A
Airport Qingdao Jiaodong International Airport (ZSQD)

Arrival

Time 2026-04-17 11:21
Airport Changsha Huanghua International Airport (ZGHA)
Time Latitude Longitude Altitude Speed Heading
2026-04-17 10:45 31.16126 114.48083 26588 ft 470 kts 206°
2026-04-17 10:46 31.13167 114.46436 26588 ft 471 kts 206°
2026-04-17 10:46 31.11165 114.45323 26601 ft 471 kts 206°
2026-04-17 10:46 31.08209 114.43682 26599 ft 471 kts 205°
2026-04-17 10:46 31.05287 114.42064 26587 ft 471 kts 205°
2026-04-17 10:47 31.02280 114.40403 26586 ft 471 kts 205°
2026-04-17 10:47 30.99354 114.38788 26599 ft 471 kts 205°
2026-04-17 10:47 30.96402 114.37160 26603 ft 471 kts 205°
2026-04-17 10:47 30.93434 114.35522 26587 ft 471 kts 205°
2026-04-17 10:48 30.90463 114.33896 26594 ft 471 kts 205°
2026-04-17 10:48 30.87486 114.32311 26593 ft 471 kts 204°
2026-04-17 10:48 30.84487 114.30748 26602 ft 471 kts 204°
2026-04-17 10:48 30.81498 114.29203 26598 ft 471 kts 204°
2026-04-17 10:49 30.78501 114.27642 26596 ft 471 kts 205°
2026-04-17 10:49 30.75510 114.26044 26598 ft 471 kts 205°
2026-04-17 10:49 30.72544 114.24428 26600 ft 471 kts 205°
2026-04-17 10:49 30.69577 114.22795 26600 ft 471 kts 205°
2026-04-17 10:50 30.66616 114.21165 26604 ft 471 kts 205°
2026-04-17 10:50 30.63654 114.19541 26600 ft 471 kts 205°
2026-04-17 10:50 30.60682 114.17922 26602 ft 471 kts 205°
2026-04-17 10:50 30.57710 114.16315 26595 ft 471 kts 205°
2026-04-17 10:51 30.54735 114.14714 26604 ft 471 kts 205°
2026-04-17 10:51 30.51801 114.13134 26598 ft 471 kts 205°
2026-04-17 10:51 30.48832 114.11536 26598 ft 470 kts 205°
2026-04-17 10:51 30.45859 114.09929 26587 ft 470 kts 205°
2026-04-17 10:52 30.42894 114.08321 26587 ft 470 kts 205°
2026-04-17 10:52 30.39922 114.06715 26588 ft 470 kts 205°
2026-04-17 10:52 30.36958 114.05121 26588 ft 470 kts 205°
2026-04-17 10:52 30.33987 114.03524 26586 ft 470 kts 205°
2026-04-17 10:53 30.31022 114.01930 26587 ft 470 kts 205°
2026-04-17 10:53 30.28055 114.00337 26587 ft 470 kts 205°
2026-04-17 10:53 30.25081 113.98742 26586 ft 470 kts 205°
2026-04-17 10:53 30.22113 113.97149 26586 ft 470 kts 205°
2026-04-17 10:54 30.19186 113.95581 26587 ft 470 kts 205°
2026-04-17 10:54 30.16220 113.93992 26585 ft 470 kts 205°
2026-04-17 10:54 30.13254 113.92404 26586 ft 470 kts 205°
2026-04-17 10:54 30.10286 113.90816 26585 ft 470 kts 205°
2026-04-17 10:55 30.07318 113.89228 26587 ft 470 kts 205°
2026-04-17 10:55 30.04355 113.87641 26586 ft 470 kts 205°
2026-04-17 10:55 30.01382 113.86051 26588 ft 470 kts 205°
2026-04-17 10:55 29.98411 113.84467 26587 ft 470 kts 205°
2026-04-17 10:56 29.95442 113.82888 26587 ft 470 kts 205°
2026-04-17 10:56 29.92463 113.81306 26587 ft 470 kts 205°
2026-04-17 10:56 29.89478 113.79731 26586 ft 470 kts 203°
2026-04-17 10:56 29.86367 113.78590 26587 ft 471 kts 191°
2026-04-17 10:57 29.83100 113.78179 26594 ft 471 kts 184°
2026-04-17 10:57 29.79835 113.77953 26589 ft 471 kts 184°
2026-04-17 10:57 29.76564 113.77719 26548 ft 472 kts 184°
2026-04-17 10:57 29.73278 113.77490 26174 ft 473 kts 184°
2026-04-17 10:58 29.69985 113.77265 25795 ft 473 kts 184°
2026-04-17 10:58 29.66733 113.77043 25424 ft 474 kts 184°
2026-04-17 10:58 29.63443 113.76819 25050 ft 474 kts 184°
2026-04-17 10:58 29.60148 113.76593 24675 ft 475 kts 184°
2026-04-17 10:59 29.56834 113.76363 24291 ft 476 kts 184°
2026-04-17 10:59 29.53526 113.76136 23925 ft 477 kts 184°
2026-04-17 10:59 29.50214 113.75907 23550 ft 479 kts 184°
2026-04-17 10:59 29.46864 113.75673 23169 ft 481 kts 184°
2026-04-17 11:00 29.43520 113.75439 22794 ft 482 kts 184°
2026-04-17 11:00 29.40164 113.75204 22419 ft 483 kts 184°
2026-04-17 11:00 29.36822 113.74970 22043 ft 480 kts 184°
2026-04-17 11:00 29.33516 113.74743 21668 ft 473 kts 184°
2026-04-17 11:01 29.30230 113.74522 21297 ft 471 kts 184°
2026-04-17 11:01 29.26957 113.74302 20917 ft 470 kts 184°
2026-04-17 11:01 29.23735 113.74087 20547 ft 468 kts 183°
2026-04-17 11:01 29.20491 113.73980 20171 ft 465 kts 180°
2026-04-17 11:02 29.17262 113.74018 19795 ft 463 kts 179°
2026-04-17 11:02 29.14038 113.74153 19418 ft 461 kts 178°
2026-04-17 11:02 29.10848 113.74325 19043 ft 454 kts 177°
2026-04-17 11:02 29.07722 113.74490 18667 ft 446 kts 178°
2026-04-17 11:03 29.04631 113.74629 18287 ft 442 kts 178°
2026-04-17 11:03 29.01559 113.74738 17914 ft 439 kts 179°
2026-04-17 11:03 28.98554 113.74823 17556 ft 436 kts 179°
2026-04-17 11:03 28.95525 113.74899 17181 ft 434 kts 179°
2026-04-17 11:04 28.92508 113.74973 16805 ft 432 kts 179°
2026-04-17 11:04 28.89521 113.75051 16430 ft 431 kts 179°
2026-04-17 11:04 28.86527 113.75134 16055 ft 429 kts 179°
2026-04-17 11:04 28.83558 113.75216 15688 ft 426 kts 179°
2026-04-17 11:05 28.80598 113.75301 15319 ft 423 kts 179°
2026-04-17 11:05 28.77674 113.75389 14929 ft 421 kts 179°
2026-04-17 11:05 28.74752 113.75479 14553 ft 418 kts 179°
2026-04-17 11:05 28.71848 113.75390 14177 ft 416 kts 183°
2026-04-17 11:06 28.68972 113.75200 13792 ft 413 kts 184°
2026-04-17 11:06 28.66106 113.74987 13427 ft 411 kts 184°
2026-04-17 11:06 28.63246 113.74763 13050 ft 409 kts 184°
2026-04-17 11:06 28.60416 113.74541 12674 ft 406 kts 184°
2026-04-17 11:07 28.57599 113.74323 12297 ft 404 kts 184°
2026-04-17 11:07 28.54810 113.74113 11929 ft 396 kts 184°
2026-04-17 11:07 28.52122 113.73913 11780 ft 377 kts 184°
2026-04-17 11:07 28.49582 113.73725 11805 ft 355 kts 184°
2026-04-17 11:08 28.47181 113.73549 11808 ft 336 kts 184°
2026-04-17 11:08 28.44938 113.73388 11804 ft 319 kts 184°
2026-04-17 11:08 28.42749 113.73175 11501 ft 313 kts 192°
2026-04-17 11:08 28.40777 113.72218 11171 ft 307 kts 217°
2026-04-17 11:09 28.39376 113.70453 10857 ft 303 kts 241°
2026-04-17 11:09 28.38768 113.68405 10551 ft 298 kts 263°
2026-04-17 11:09 28.38801 113.66079 10228 ft 294 kts 274°
2026-04-17 11:10 28.39068 113.61487 9575 ft 288 kts 274°
2026-04-17 11:10 28.39195 113.59233 9234 ft 285 kts 274°
2026-04-17 11:10 28.39320 113.56996 8858 ft 283 kts 274°
2026-04-17 11:10 28.39442 113.54769 8482 ft 282 kts 273°
2026-04-17 11:11 28.39561 113.52554 8105 ft 279 kts 273°
2026-04-17 11:11 28.39680 113.50360 7729 ft 277 kts 273°
2026-04-17 11:11 28.39798 113.48182 7351 ft 274 kts 274°
2026-04-17 11:11 28.39929 113.46075 6973 ft 261 kts 275°
2026-04-17 11:12 28.40093 113.44071 6602 ft 249 kts 276°
2026-04-17 11:12 28.40265 113.42150 6223 ft 239 kts 276°
2026-04-17 11:12 28.40432 113.40307 5849 ft 231 kts 276°
2026-04-17 11:12 28.40592 113.38544 5478 ft 224 kts 276°
2026-04-17 11:13 28.40749 113.36807 5102 ft 218 kts 276°
2026-04-17 11:13 28.40900 113.35113 4726 ft 213 kts 276°
2026-04-17 11:13 28.40959 113.33444 4353 ft 210 kts 266°
2026-04-17 11:13 28.40877 113.31797 3977 ft 208 kts 267°
2026-04-17 11:14 28.40801 113.30157 3621 ft 206 kts 267°
2026-04-17 11:14 28.40729 113.28509 3515 ft 224 kts 267°
2026-04-17 11:14 28.40659 113.26735 3597 ft 223 kts 267°
2026-04-17 11:14 28.40589 113.24960 3242 ft 225 kts 267°
2026-04-17 11:15 28.40519 113.23191 2884 ft 222 kts 267°
2026-04-17 11:15 28.40433 113.21495 2534 ft 216 kts 261°
2026-04-17 11:15 28.39763 113.20087 2339 ft 202 kts 216°
2026-04-17 11:15 28.38491 113.19717 2344 ft 186 kts 167°
2026-04-17 11:16 28.37452 113.20390 2339 ft 165 kts 142°
2026-04-17 11:16 28.36449 113.20857 2317 ft 153 kts 182°
2026-04-17 11:16 28.35391 113.20859 2340 ft 152 kts 173°
2026-04-17 11:16 28.34354 113.21046 2344 ft 146 kts 169°
2026-04-17 11:17 28.33383 113.21275 2316 ft 140 kts 168°
2026-04-17 11:17 28.32435 113.21507 2296 ft 138 kts 168°
2026-04-17 11:17 28.31503 113.21735 2262 ft 137 kts 169°
2026-04-17 11:17 28.30551 113.21740 2106 ft 136 kts 182°
2026-04-17 11:18 28.29613 113.21750 1931 ft 136 kts 179°
2026-04-17 11:18 28.29194 113.21764 1853 ft 136 kts 179°
2026-04-17 11:18 28.28981 113.21772 1814 ft 136 kts 179°
2026-04-17 11:18 28.28056 113.21815 1638 ft 135 kts 178°
2026-04-17 11:19 28.27110 113.21867 1453 ft 135 kts 178°
2026-04-17 11:19 28.26173 113.21921 1278 ft 135 kts 178°
2026-04-17 11:19 28.25239 113.21977 1097 ft 134 kts 178°
2026-04-17 11:19 28.24304 113.22033 923 ft 134 kts 178°
2026-04-17 11:20 28.23377 113.22090 744 ft 133 kts 177°
2026-04-17 11:20 28.22448 113.22150 568 ft 133 kts 178°
2026-04-17 11:20 28.21526 113.22208 401 ft 133 kts 177°
2026-04-17 11:20 28.20606 113.22263 236 ft 131 kts 178°
2026-04-17 11:21 28.19791 113.22311 216 ft 98 kts 175°
2026-04-17 11:21 28.19280 113.22343 217 ft 49 kts 177°
2026-04-17 11:21 28.19017 113.22357 216 ft 25 kts 177°
2026-04-17 11:21 28.18868 113.22335 216 ft 22 kts 198°
2026-04-17 11:22 28.18720 113.22262 220 ft 24 kts 203°
2026-04-17 11:22 28.18554 113.22194 215 ft 27 kts 184°
2026-04-17 11:22 28.18366 113.22205 215 ft 28 kts 176°
2026-04-17 11:22 28.18161 113.22219 215 ft 30 kts 176°
2026-04-17 11:23 28.17944 113.22232 218 ft 32 kts 178°
2026-04-17 11:23 28.17811 113.22239 214 ft 9 kts 182°
2026-04-17 11:23 28.17767 113.22200 221 ft 8 kts 248°
2026-04-17 11:23 28.17762 113.22141 214 ft 7 kts 267°
2026-04-17 11:24 28.17760 113.22094 215 ft 5 kts 267°
2026-04-17 11:24 28.17759 113.22059 215 ft 4 kts 267°
2026-04-17 11:24 28.17753 113.22018 216 ft 10 kts 254°
2026-04-17 11:24 28.17746 113.21986 218 ft 15 kts 257°
2026-04-17 11:26 28.18661 113.21806 214 ft 23 kts 357°